Time,TemperatureF,DewpointF,PressureIn,WindDirection,WindDirectionDegrees,WindSpeedMPH,WindSpeedGustMPH,Humidity,HourlyPrecipIn,Conditions,Clouds,dailyrainin,SolarRadiationWatts/m^2,SoftwareType,DateUTC
2013-08-05 07:53:00,63.0,30.0,-100.00,WNW,300,9.0,12.0,29,0.00,,,0.00,88.000000,,2013-08-05 14:53:00,
2013-08-05 08:12:00,63.0,30.0,-100.00,WNW,300,9.0,12.0,29,0.00,,,0.00,88.000000,,2013-08-05 15:12:00,
2013-08-05 09:59:00,75.0,30.0,-100.00,WNW,300,9.0,15.0,19,0.00,,,0.00,596.000000,,2013-08-05 16:59:00,
2013-08-05 10:22:00,75.0,30.0,-100.00,WNW,300,9.0,15.0,19,0.00,,,0.00,596.000000,,2013-08-05 17:22:00,
2013-08-05 11:13:00,78.0,25.0,-100.00,NW,310,8.0,15.0,14,0.00,,,0.00,809.000000,,2013-08-05 18:13:00,
2013-08-05 11:22:00,78.0,25.0,-100.00,NW,310,8.0,15.0,14,0.00,,,0.00,809.000000,,2013-08-05 18:22:00,
2013-08-05 11:54:00,84.0,24.0,-100.00,WNW,300,5.0,13.0,11,0.00,,,-99.99,974.000000,,2013-08-05 18:54:00,
2013-08-05 12:05:00,84.0,24.0,-100.00,WNW,300,5.0,13.0,11,0.00,,,-99.99,974.000000,,2013-08-05 19:05:00,
2013-08-05 12:14:00,84.0,24.0,-100.00,WNW,300,5.0,13.0,11,0.00,,,-99.99,974.000000,,2013-08-05 19:14:00,
2013-08-05 13:04:00,86.0,21.0,-100.00,NW,313,2.0,23.0,9,0.00,,,0.00,1079.000000,,2013-08-05 20:04:00,
2013-08-05 13:14:00,86.0,21.0,-100.00,NW,313,2.0,23.0,9,0.00,,,0.00,1079.000000,,2013-08-05 20:14:00,
2013-08-05 14:00:00,88.0,22.0,-100.00,NW,309,4.0,12.0,9,0.00,,,0.00,1118.000000,,2013-08-05 21:00:00,
2013-08-05 14:53:00,90.0,21.0,-100.00,SE,125,11.0,20.0,8,0.00,,,0.00,1093.000000,,2013-08-05 21:53:00,
2013-08-05 15:13:00,90.0,21.0,-100.00,SE,125,11.0,20.0,8,0.00,,,0.00,1093.000000,,2013-08-05 22:13:00,
2013-08-05 15:22:00,90.0,21.0,-100.00,SE,125,11.0,20.0,8,0.00,,,0.00,1093.000000,,2013-08-05 22:22:00,
2013-08-05 15:53:00,91.0,22.0,-100.00,SW,222,3.0,18.0,8,0.00,,,0.00,1006.000000,,2013-08-05 22:53:00,
2013-08-05 16:04:00,91.0,22.0,-100.00,SW,222,3.0,18.0,8,0.00,,,0.00,1006.000000,,2013-08-05 23:04:00,
2013-08-05 16:13:00,91.0,22.0,-100.00,SW,222,3.0,18.0,8,0.00,,,0.00,1006.000000,,2013-08-05 23:13:00,
2013-08-05 17:02:00,89.0,23.0,-100.00,WNW,300,9.0,17.0,9,0.00,,,0.00,853.000000,,2013-08-06 00:02:00,
2013-08-05 17:14:00,89.0,23.0,-100.00,WNW,300,9.0,17.0,9,0.00,,,0.00,853.000000,,2013-08-06 00:14:00,
2013-08-05 17:23:00,89.0,23.0,-100.00,WNW,300,9.0,17.0,9,0.00,,,0.00,853.000000,,2013-08-06 00:23:00,
2013-08-05 17:57:00,86.0,18.0,-100.00,WNW,291,9.0,18.0,8,0.00,,,0.00,659.000000,,2013-08-06 00:57:00,
2013-08-05 18:05:00,86.0,18.0,-100.00,WNW,291,9.0,18.0,8,0.00,,,0.00,659.000000,,2013-08-06 01:05:00,
2013-08-05 18:14:00,86.0,18.0,-100.00,WNW,291,9.0,18.0,8,0.00,,,0.00,659.000000,,2013-08-06 01:14:00,
2013-08-05 18:23:00,86.0,18.0,-100.00,WNW,291,9.0,18.0,8,0.00,,,0.00,659.000000,,2013-08-06 01:23:00,
2013-08-05 19:05:00,83.0,18.0,-100.00,NW,305,9.0,18.0,9,0.00,,,0.00,425.000000,,2013-08-06 02:05:00,
2013-08-05 19:23:00,83.0,18.0,-100.00,NW,305,9.0,18.0,9,0.00,,,0.00,425.000000,,2013-08-06 02:23:00,
2013-08-05 19:52:00,77.0,16.0,-100.00,NW,311,9.0,17.0,10,0.00,,,0.00,182.000000,,2013-08-06 02:52:00,
2013-08-05 20:01:00,77.0,16.0,-100.00,NW,311,9.0,17.0,10,0.00,,,0.00,182.000000,,2013-08-06 03:01:00,
2013-08-05 20:14:00,77.0,16.0,-100.00,NW,311,9.0,17.0,10,0.00,,,0.00,182.000000,,2013-08-06 03:14:00,
2013-08-05 20:22:00,77.0,16.0,-100.00,NW,311,9.0,17.0,10,0.00,,,0.00,182.000000,,2013-08-06 03:22:00,
2013-08-05 20:52:00,73.0,17.0,-100.00,WSW,247,10.0,17.0,12,0.00,,,0.00,5.000000,,2013-08-06 03:52:00,
2013-08-05 21:01:00,73.0,17.0,-100.00,WSW,247,10.0,17.0,12,0.00,,,0.00,5.000000,,2013-08-06 04:01:00,
2013-08-05 21:11:00,73.0,17.0,-100.00,WSW,247,10.0,17.0,12,0.00,,,0.00,5.000000,,2013-08-06 04:11:00,
2013-08-05 21:22:00,73.0,17.0,-100.00,WSW,247,10.0,17.0,12,0.00,,,0.00,5.000000,,2013-08-06 04:22:00,
2013-08-05 21:53:00,69.0,22.0,-100.00,SSW,199,5.0,17.0,17,0.00,,,0.00,0.000000,,2013-08-06 04:53:00,
2013-08-05 22:02:00,69.0,22.0,-100.00,SSW,199,5.0,17.0,17,0.00,,,0.00,0.000000,,2013-08-06 05:02:00,
2013-08-05 22:11:00,69.0,22.0,-100.00,SSW,199,5.0,17.0,17,0.00,,,0.00,0.000000,,2013-08-06 05:11:00,
2013-08-05 22:21:00,69.0,22.0,-100.00,SSW,199,5.0,17.0,17,0.00,,,0.00,0.000000,,2013-08-06 05:21:00,